253P/PanSTARRS (2018)

Japanese version
Home page
Updated on October 28, 2018

---------------------------------------------------------------------

* Profile

* Orbital Elements

Epoch 2018 May 2.0 TT = JDT 2458240.5
T 2018 May 7.72982 TT                                   MPCW
q   2.0367498            (2000.0)            P               Q
n   0.15252348     Peri.  230.72585     +0.95157164     -0.30380518
a   3.4693244      Node   146.88319     +0.30186562     +0.89436970
e   0.4129261      Incl.    4.94041     +0.05821129     +0.32833709
P   6.46
From 345 observations 1998 Sept. 14-2018 Oct. 6, mean residual 0".6.
     Nongravitational parameters A1 = +1.25, A2 = -0.0167.

* Magnitudes Graph

        m1 = 12.0 + 5 log d + 15.0 log r

---------------------------------------------------------------------

The orbital elements are published on M.P.E.C. 2018-U70.
The magnitudes graphs are made with Comet for Windows.

---------------------------------------------------------------------

Copyright(C) Seiichi Yoshida (comet@aerith.net). All rights reserved.